Location: Cargill Incorporated Elevator
(42.7294°N, 93.7333°W)
Time: 05:17:36
(UTC+00:00)

Cosmos 304 Rocket - Pass Details

Date: 19 January 2026
Orbit: 669 x 676 km, 74.0° (Epoch: 14 February)

Event Time Altitude Azimuth Distance (km) Brightness Sun altitude
Rises 12:30:45 0° 197° (SSW) 3,013 7.1 -12.7°
Reaches altitude 10° 12:33:02 10° 197° (SSW) 2,103 6.3 -12.3°
Maximum altitude 12:37:46 87° 109° (ESE) 683 3.8 -11.5°
Drops below altitude 10° 12:42:33 10° 21° (NNE) 2,119 6.3 -10.6°
Sets 12:44:52 0° 21° (NNE) 3,037 7.1 -10.2°
